Time,TemperatureF,DewpointF,PressureIn,WindDirection,WindDirectionDegrees,WindSpeedMPH,WindSpeedGustMPH,Humidity,HourlyPrecipIn,Conditions,Clouds,dailyrainin,SoftwareType,DateUTC
2013-11-07 00:00:00,75.5,68.5,29.96,SE,138,1.0,7.0,79,0.00,BKN,,0.00,WeatherDisplay:10.37,2013-11-06 14:00:00,
2013-11-07 00:10:00,75.7,68.4,29.96,SE,145,1.0,7.0,78,0.00,SCT,,0.00,WeatherDisplay:10.37,2013-11-06 14:10:00,
2013-11-07 00:15:00,75.9,68.6,29.96,SSE,148,0.0,4.0,78,0.00,SCT,,0.00,WeatherDisplay:10.37,2013-11-06 14:15:00,
2013-11-07 00:20:00,76.2,68.9,29.96,SE,128,1.0,5.0,78,0.00,SCT,,0.00,WeatherDisplay:10.37,2013-11-06 14:20:00,
2013-11-07 00:25:00,76.3,68.6,29.96,ESE,118,0.0,5.0,77,0.00,SCT,,0.00,WeatherDisplay:10.37,2013-11-06 14:25:00,
2013-11-07 00:30:00,76.4,68.7,29.95,SE,124,1.0,6.0,77,0.00,SCT,,0.00,WeatherDisplay:10.37,2013-11-06 14:30:00,
2013-11-07 00:35:00,76.4,68.3,29.95,SE,124,1.0,6.0,76,0.00,SCT,,0.00,WeatherDisplay:10.37,2013-11-06 14:35:00,
2013-11-07 00:40:00,76.5,68.4,29.95,SE,129,2.0,6.0,76,0.00,SCT,,0.00,WeatherDisplay:10.37,2013-11-06 14:40:00,
2013-11-07 00:45:00,76.4,68.3,29.95,SE,146,0.0,3.0,76,0.00,SCT,,0.00,WeatherDisplay:10.37,2013-11-06 14:45:00,
2013-11-07 00:50:00,76.5,68.7,29.95,ESE,123,0.0,5.0,77,0.00,SCT,,0.00,WeatherDisplay:10.37,2013-11-06 14:50:00,
2013-11-07 00:55:00,76.6,68.8,29.95,ESE,103,3.0,7.0,77,0.00,SCT,,0.00,WeatherDisplay:10.37,2013-11-06 14:55:00,
2013-11-07 01:00:00,76.7,68.9,29.95,East,99,2.0,6.0,77,0.00,SCT,,0.00,WeatherDisplay:10.37,2013-11-06 15:00:00,
2013-11-07 01:05:00,76.7,68.9,29.94,East,95,0.0,5.0,77,0.00,FEW,,0.00,WeatherDisplay:10.37,2013-11-06 15:05:00,
2013-11-07 01:10:00,76.7,68.9,29.94,East,97,2.0,6.0,77,0.00,FEW,,0.00,WeatherDisplay:10.37,2013-11-06 15:10:00,
2013-11-07 01:15:00,76.7,68.9,29.94,ESE,102,5.0,7.0,77,0.00,FEW,,0.00,WeatherDisplay:10.37,2013-11-06 15:15:00,
2013-11-07 01:20:00,76.8,69.0,29.94,East,92,3.0,9.0,77,0.00,FEW,,0.00,WeatherDisplay:10.37,2013-11-06 15:20:00,
2013-11-07 01:25:00,76.8,69.1,29.94,East,100,0.0,6.0,77,0.00,FEW,,0.00,WeatherDisplay:10.37,2013-11-06 15:25:00,
2013-11-07 01:35:00,76.7,68.6,29.94,ESE,113,0.0,6.0,76,0.00,FEW,,0.00,WeatherDisplay:10.37,2013-11-06 15:35:00,
2013-11-07 01:40:00,76.7,68.6,29.94,SE,126,1.0,6.0,76,0.00,FEW,,0.00,WeatherDisplay:10.37,2013-11-06 15:40:00,
2013-11-07 01:45:00,76.8,68.3,29.94,SE,134,1.0,6.0,75,0.00,FEW,,0.00,WeatherDisplay:10.37,2013-11-06 15:45:00,
2013-11-07 01:50:00,76.7,68.2,29.94,SE,125,1.0,4.0,75,0.00,FEW,,0.00,WeatherDisplay:10.37,2013-11-06 15:50:00,
2013-11-07 01:55:00,76.8,68.3,29.94,ESE,105,1.0,8.0,75,0.00,BKN,,0.00,WeatherDisplay:10.37,2013-11-06 15:55:00,
2013-11-07 02:00:00,76.8,68.3,29.93,East,88,1.0,4.0,75,0.00,BKN,,0.00,WeatherDisplay:10.37,2013-11-06 16:00:00,
2013-11-07 02:05:00,76.7,68.2,29.93,East,95,1.0,6.0,75,0.00,BKN,,0.00,WeatherDisplay:10.37,2013-11-06 16:05:00,
2013-11-07 02:10:00,76.6,67.7,29.93,SSE,150,1.0,6.0,74,0.00,BKN,,0.00,WeatherDisplay:10.37,2013-11-06 16:10:00,
2013-11-07 02:15:00,76.6,68.1,29.93,SSE,161,1.0,5.0,75,0.00,BKN,,0.00,WeatherDisplay:10.37,2013-11-06 16:15:00,
2013-11-07 02:20:00,76.6,68.1,29.93,SE,136,1.0,5.0,75,0.00,BKN,,0.00,WeatherDisplay:10.37,2013-11-06 16:20:00,
2013-11-07 02:25:00,76.6,68.1,29.93,SE,128,1.0,9.0,75,0.00,BKN,,0.00,WeatherDisplay:10.37,2013-11-06 16:25:00,
2013-11-07 02:30:00,76.5,68.0,29.93,SE,131,0.0,2.0,75,0.00,BKN,,0.00,WeatherDisplay:10.37,2013-11-06 16:30:00,
2013-11-07 02:35:00,76.4,68.3,29.93,ESE,114,1.0,5.0,76,0.00,BKN,,0.00,WeatherDisplay:10.37,2013-11-06 16:35:00,
2013-11-07 02:40:00,76.4,68.3,29.93,ESE,119,1.0,6.0,76,0.00,BKN,,0.00,WeatherDisplay:10.37,2013-11-06 16:40:00,
2013-11-07 02:50:00,76.2,67.7,29.92,SE,131,0.0,6.0,75,0.00,BKN,,0.00,WeatherDisplay:10.37,2013-11-06 16:50:00,
2013-11-07 02:55:00,76.2,67.7,29.93,SE,138,1.0,10.0,75,0.00,BKN,,0.00,WeatherDisplay:10.37,2013-11-06 16:55:00,
2013-11-07 03:00:00,76.2,67.7,29.93,South,177,0.0,3.0,75,0.00,BKN,,0.00,WeatherDisplay:10.37,2013-11-06 17:00:00,
2013-11-07 03:10:00,76.1,67.6,29.93,SE,146,1.0,7.0,75,0.00,BKN,,0.00,WeatherDisplay:10.37,2013-11-06 17:10:00,
2013-11-07 03:15:00,76.0,67.1,29.92,SSE,150,0.0,9.0,74,0.00,BKN,,0.00,WeatherDisplay:10.37,2013-11-06 17:15:00,
2013-11-07 03:20:00,76.1,67.6,29.93,SE,130,1.0,6.0,75,0.00,BKN,,0.00,WeatherDisplay:10.37,2013-11-06 17:20:00,
2013-11-07 03:25:00,76.2,67.7,29.93,SSE,159,1.0,4.0,75,0.00,SCT,,0.00,WeatherDisplay:10.37,2013-11-06 17:25:00,
2013-11-07 03:30:00,76.2,67.7,29.93,SSE,168,0.0,4.0,75,0.00,SCT,,0.00,WeatherDisplay:10.37,2013-11-06 17:30:00,
2013-11-07 03:35:00,76.2,67.7,29.93,SSE,157,1.0,9.0,75,0.00,SCT,,0.00,WeatherDisplay:10.37,2013-11-06 17:35:00,
2013-11-07 03:40:00,76.1,67.2,29.93,SSE,166,1.0,9.0,74,0.00,SCT,,0.00,WeatherDisplay:10.37,2013-11-06 17:40:00,
2013-11-07 03:45:00,76.1,67.2,29.93,SE,141,1.0,6.0,74,0.00,SCT,,0.00,WeatherDisplay:10.37,2013-11-06 17:45:00,
2013-11-07 03:50:00,76.0,67.5,29.93,SE,134,0.0,5.0,75,0.00,SCT,,0.00,WeatherDisplay:10.37,2013-11-06 17:50:00,
2013-11-07 03:55:00,76.0,67.5,29.93,SE,146,0.0,4.0,75,0.00,SCT,,0.00,WeatherDisplay:10.37,2013-11-06 17:55:00,
2013-11-07 04:00:00,75.8,67.3,29.93,ESE,116,1.0,6.0,75,0.00,SCT,,0.00,WeatherDisplay:10.37,2013-11-06 18:00:00,
2013-11-07 04:10:00,75.7,66.8,29.93,SSW,196,0.0,7.0,74,0.00,SCT,,0.00,WeatherDisplay:10.37,2013-11-06 18:10:00,
2013-11-07 04:15:00,75.7,66.8,29.93,South,178,1.0,6.0,74,0.00,SCT,,0.00,WeatherDisplay:10.37,2013-11-06 18:15:00,
2013-11-07 04:20:00,75.7,66.4,29.93,SSE,163,2.0,7.0,73,0.00,SCT,,0.00,WeatherDisplay:10.37,2013-11-06 18:20:00,
2013-11-07 04:25:00,75.6,66.0,29.93,SSE,166,1.0,9.0,72,0.00,SCT,,0.00,WeatherDisplay:10.37,2013-11-06 18:25:00,
2013-11-07 04:30:00,75.8,66.5,29.93,SE,136,1.0,7.0,73,0.00,SCT,,0.00,WeatherDisplay:10.37,2013-11-06 18:30:00,
2013-11-07 04:35:00,75.8,66.9,29.94,SE,130,0.0,7.0,74,0.00,SCT,,0.00,WeatherDisplay:10.37,2013-11-06 18:35:00,
2013-11-07 04:40:00,75.8,67.3,29.94,SE,142,0.0,5.0,75,0.00,SCT,,0.00,WeatherDisplay:10.37,2013-11-06 18:40:00,
2013-11-07 04:45:00,75.7,67.2,29.94,ESE,105,0.0,3.0,75,0.00,SCT,,0.00,WeatherDisplay:10.37,2013-11-06 18:45:00,
2013-11-07 04:50:00,75.6,67.1,29.94,ENE,70,0.0,3.0,75,0.00,SCT,,0.00,WeatherDisplay:10.37,2013-11-06 18:50:00,
2013-11-07 04:55:00,75.5,67.0,29.94,East,79,1.0,4.0,75,0.00,SCT,,0.00,WeatherDisplay:10.37,2013-11-06 18:55:00,
2013-11-07 05:00:00,75.5,67.0,29.94,ESE,113,1.0,4.0,75,0.00,SCT,,0.00,WeatherDisplay:10.37,2013-11-06 19:00:00,
2013-11-07 05:10:00,75.8,67.3,29.94,ESE,112,2.0,7.0,75,0.00,SCT,,0.00,WeatherDisplay:10.37,2013-11-06 19:10:00,
2013-11-07 05:15:00,75.8,66.9,29.94,SE,141,2.0,6.0,74,0.00,BKN,,0.00,WeatherDisplay:10.37,2013-11-06 19:15:00,
2013-11-07 05:20:00,75.9,67.0,29.93,SSE,156,0.0,3.0,74,0.00,BKN,,0.00,WeatherDisplay:10.37,2013-11-06 19:20:00,
2013-11-07 05:25:00,75.9,67.0,29.94,SSE,165,0.0,3.0,74,0.00,BKN,,0.00,WeatherDisplay:10.37,2013-11-06 19:25:00,
2013-11-07 05:30:00,75.8,66.9,29.94,SSW,193,0.0,2.0,74,0.00,BKN,,0.00,WeatherDisplay:10.37,2013-11-06 19:30:00,
2013-11-07 05:35:00,75.6,67.1,29.94,SSW,211,0.0,1.0,75,0.00,BKN,,0.00,WeatherDisplay:10.37,2013-11-06 19:35:00,
2013-11-07 05:40:00,75.3,67.2,29.94,South,176,1.0,5.0,76,0.00,BKN,,0.00,WeatherDisplay:10.37,2013-11-06 19:40:00,
2013-11-07 05:45:00,75.0,66.9,29.94,SSE,147,0.0,3.0,76,0.00,BKN,,0.00,WeatherDisplay:10.37,2013-11-06 19:45:00,
2013-11-07 05:50:00,74.7,66.6,29.94,SSE,155,0.0,2.0,76,0.00,BKN,,0.00,WeatherDisplay:10.37,2013-11-06 19:50:00,
2013-11-07 05:55:00,74.4,66.7,29.94,SSE,156,0.0,2.0,77,0.00,SCT,,0.00,WeatherDisplay:10.37,2013-11-06 19:55:00,
2013-11-07 06:00:00,74.3,66.6,29.94,SE,144,0.0,2.0,77,0.00,SCT,,0.00,WeatherDisplay:10.37,2013-11-06 20:00:00,
2013-11-07 06:05:00,74.3,67.0,29.95,SE,144,1.0,3.0,78,0.00,SCT,,0.00,WeatherDisplay:10.37,2013-11-06 20:05:00,
2013-11-07 06:10:00,74.3,67.0,29.95,South,183,0.0,2.0,78,0.00,SCT,,0.00,WeatherDisplay:10.37,2013-11-06 20:10:00,
2013-11-07 06:15:00,74.2,66.9,29.95,SSW,201,0.0,2.0,78,0.00,SCT,,0.00,WeatherDisplay:10.37,2013-11-06 20:15:00,
2013-11-07 06:20:00,74.2,66.9,29.95,SSW,202,0.0,2.0,78,0.00,SCT,,0.00,WeatherDisplay:10.37,2013-11-06 20:20:00,
2013-11-07 06:25:00,74.1,66.8,29.95,SSW,202,0.0,1.0,78,0.00,SCT,,0.00,WeatherDisplay:10.37,2013-11-06 20:25:00,
2013-11-07 06:30:00,74.0,66.7,29.95,SSW,202,0.0,2.0,78,0.00,SCT,,0.00,WeatherDisplay:10.37,2013-11-06 20:30:00,
2013-11-07 06:35:00,74.0,67.1,29.95,SSW,202,0.0,1.0,79,0.00,SCT,,0.00,WeatherDisplay:10.37,2013-11-06 20:35:00,
2013-11-07 06:40:00,74.0,67.1,29.95,SSW,202,0.0,1.0,79,0.00,SCT,,0.00,WeatherDisplay:10.37,2013-11-06 20:40:00,
2013-11-07 06:45:00,74.1,67.2,29.95,SSW,202,0.0,2.0,79,0.00,SCT,,0.00,WeatherDisplay:10.37,2013-11-06 20:45:00,
2013-11-07 06:50:00,74.1,67.2,29.96,SSW,203,0.0,1.0,79,0.00,SCT,,0.00,WeatherDisplay:10.37,2013-11-06 20:50:00,
2013-11-07 06:55:00,74.2,67.3,29.96,SSW,203,0.0,2.0,79,0.00,SCT,,0.00,WeatherDisplay:10.37,2013-11-06 20:55:00,
2013-11-07 07:00:00,74.3,67.3,29.95,SSW,204,0.0,3.0,79,0.00,SCT,,0.00,WeatherDisplay:10.37,2013-11-06 21:00:00,
2013-11-07 07:10:00,74.4,67.5,29.96,SSW,212,1.0,3.0,79,0.00,SCT,,0.00,WeatherDisplay:10.37,2013-11-06 21:10:00,
2013-11-07 07:20:00,75.0,67.7,29.96,SSW,201,1.0,5.0,78,0.00,SCT,,0.00,WeatherDisplay:10.37,2013-11-06 21:20:00,
2013-11-07 07:25:00,75.4,68.1,29.96,SW,219,0.0,3.0,78,0.00,FEW,,0.00,WeatherDisplay:10.37,2013-11-06 21:25:00,
2013-11-07 07:30:00,75.7,68.0,29.96,WSW,239,0.0,2.0,77,0.00,FEW,,0.00,WeatherDisplay:10.37,2013-11-06 21:30:00,
2013-11-07 07:35:00,75.9,68.2,29.96,SW,228,0.0,4.0,77,0.00,FEW,,0.00,WeatherDisplay:10.37,2013-11-06 21:35:00,
2013-11-07 07:40:00,76.0,68.3,29.96,SW,217,0.0,2.0,77,0.00,FEW,,0.00,WeatherDisplay:10.37,2013-11-06 21:40:00,
2013-11-07 07:45:00,76.2,68.5,29.95,SSW,205,0.0,3.0,77,0.00,FEW,,0.00,WeatherDisplay:10.37,2013-11-06 21:45:00,
2013-11-07 07:50:00,76.4,68.3,29.96,South,181,1.0,4.0,76,0.00,FEW,,0.00,WeatherDisplay:10.37,2013-11-06 21:50:00,
2013-11-07 07:55:00,76.6,68.5,29.96,South,175,2.0,6.0,76,0.00,SCT,,0.00,WeatherDisplay:10.37,2013-11-06 21:55:00,
2013-11-07 08:00:00,76.8,68.3,29.96,SE,146,1.0,4.0,75,0.00,SCT,,0.00,WeatherDisplay:10.37,2013-11-06 22:00:00,
2013-11-07 08:10:00,77.4,68.8,29.96,SSE,157,1.0,5.0,75,0.00,SCT,,0.00,WeatherDisplay:10.37,2013-11-06 22:10:00,
2013-11-07 08:15:00,77.8,69.2,29.96,SE,145,1.0,6.0,75,0.00,FEW,,0.00,WeatherDisplay:10.37,2013-11-06 22:15:00,
2013-11-07 08:20:00,78.2,69.3,29.96,SE,146,1.0,6.0,74,0.00,FEW,,0.00,WeatherDisplay:10.37,2013-11-06 22:20:00,
2013-11-07 08:25:00,79.0,70.0,29.96,SSE,152,2.0,5.0,74,0.00,FEW,,0.00,WeatherDisplay:10.37,2013-11-06 22:25:00,
2013-11-07 08:30:00,79.6,69.4,29.96,SE,129,2.0,9.0,71,0.00,FEW,,0.00,WeatherDisplay:10.37,2013-11-06 22:30:00,
2013-11-07 08:35:00,79.7,69.0,29.96,SE,136,2.0,5.0,70,0.00,FEW,,0.00,WeatherDisplay:10.37,2013-11-06 22:35:00,
2013-11-07 08:45:00,80.1,68.6,29.96,SSE,162,1.0,7.0,68,0.00,FEW,,0.00,WeatherDisplay:10.37,2013-11-06 22:45:00,
2013-11-07 08:50:00,81.1,69.5,29.96,SE,146,1.0,4.0,68,0.00,FEW,,0.00,WeatherDisplay:10.37,2013-11-06 22:50:00,
2013-11-07 08:55:00,82.1,69.1,29.96,East,96,2.0,9.0,65,0.00,FEW,,0.00,WeatherDisplay:10.37,2013-11-06 22:55:00,
2013-11-07 09:00:00,82.8,69.3,29.97,SE,124,2.0,12.0,64,0.00,FEW,,0.00,WeatherDisplay:10.37,2013-11-06 23:00:00,
2013-11-07 09:10:00,83.5,69.6,29.97,SE,126,1.0,9.0,63,0.00,FEW,,0.00,WeatherDisplay:10.37,2013-11-06 23:10:00,
2013-11-07 09:15:00,83.8,69.9,29.97,ESE,120,2.0,7.0,63,0.00,FEW,,0.00,WeatherDisplay:10.37,2013-11-06 23:15:00,
2013-11-07 09:20:00,84.0,70.5,29.96,SE,125,1.0,9.0,64,0.00,FEW,,0.00,WeatherDisplay:10.37,2013-11-06 23:20:00,
2013-11-07 09:30:00,84.0,69.1,29.96,ESE,114,2.0,7.0,61,0.00,FEW,,0.00,WeatherDisplay:10.37,2013-11-06 23:30:00,
2013-11-07 09:35:00,84.3,69.4,29.96,ESE,104,1.0,4.0,61,0.00,FEW,,0.00,WeatherDisplay:10.37,2013-11-06 23:35:00,
2013-11-07 09:40:00,84.7,69.3,29.96,ESE,117,3.0,12.0,60,0.00,FEW,,0.00,WeatherDisplay:10.37,2013-11-06 23:40:00,
2013-11-07 09:45:00,85.0,69.5,29.96,SE,125,1.0,7.0,60,0.00,FEW,,0.00,WeatherDisplay:10.37,2013-11-06 23:45:00,
2013-11-07 09:50:00,85.0,70.0,29.95,SE,129,2.0,9.0,61,0.00,FEW,,0.00,WeatherDisplay:10.37,2013-11-06 23:50:00,
2013-11-07 09:55:00,84.7,70.2,29.95,SE,133,1.0,7.0,62,0.00,FEW,,0.00,WeatherDisplay:10.37,2013-11-06 23:55:00,
2013-11-07 10:00:00,85.0,69.6,29.95,SE,127,3.0,7.0,60,0.00,FEW,,0.00,WeatherDisplay:10.37,2013-11-07 00:00:00,
2013-11-07 10:10:00,85.4,69.4,29.95,SE,126,3.0,9.0,59,0.00,FEW,,0.00,WeatherDisplay:10.37,2013-11-07 00:10:00,
2013-11-07 10:15:00,85.4,69.9,29.95,SE,128,2.0,6.0,60,0.00,FEW,,0.00,WeatherDisplay:10.37,2013-11-07 00:15:00,
2013-11-07 10:20:00,85.4,69.9,29.95,ESE,108,2.0,9.0,60,0.00,FEW,,0.00,WeatherDisplay:10.37,2013-11-07 00:20:00,
2013-11-07 10:25:00,85.2,70.7,29.95,East,101,0.0,4.0,62,0.00,FEW,,0.00,WeatherDisplay:10.37,2013-11-07 00:25:00,
2013-11-07 10:30:00,85.4,70.0,29.95,ESE,113,2.0,7.0,60,0.00,FEW,,0.00,WeatherDisplay:10.37,2013-11-07 00:30:00,
2013-11-07 10:35:00,85.5,71.0,29.94,ESE,119,3.0,9.0,62,0.00,FEW,,0.00,WeatherDisplay:10.37,2013-11-07 00:35:00,
2013-11-07 10:40:00,84.1,70.6,29.94,ESE,106,5.0,7.0,64,0.00,FEW,,0.00,WeatherDisplay:10.37,2013-11-07 00:40:00,
2013-11-07 10:45:00,83.6,70.1,29.94,East,99,2.0,7.0,64,0.00,FEW,,0.00,WeatherDisplay:10.37,2013-11-07 00:45:00,
2013-11-07 10:55:00,83.0,70.9,29.94,ESE,102,2.0,6.0,67,0.00,FEW,,0.00,WeatherDisplay:10.37,2013-11-07 00:55:00,
2013-11-07 11:00:00,82.8,70.7,29.94,East,98,3.0,7.0,67,0.00,FEW,,0.00,WeatherDisplay:10.37,2013-11-07 01:00:00,
2013-11-07 11:10:00,82.6,71.0,29.94,East,100,3.0,8.0,68,0.00,FEW,,0.00,WeatherDisplay:10.37,2013-11-07 01:10:00,
2013-11-07 11:15:00,82.9,70.8,29.94,East,101,2.0,7.0,67,0.00,FEW,,0.00,WeatherDisplay:10.37,2013-11-07 01:15:00,
2013-11-07 11:20:00,83.0,70.9,29.93,East,100,3.0,6.0,67,0.00,FEW,,0.00,WeatherDisplay:10.37,2013-11-07 01:20:00,
2013-11-07 11:25:00,83.0,70.0,29.93,East,98,3.0,5.0,65,0.00,FEW,,0.00,WeatherDisplay:10.37,2013-11-07 01:25:00,
2013-11-07 11:30:00,82.9,70.4,29.93,East,99,3.0,10.0,66,0.00,FEW,,0.00,WeatherDisplay:10.37,2013-11-07 01:30:00,
2013-11-07 11:35:00,83.0,71.3,29.93,East,99,3.0,6.0,68,0.00,FEW,,0.00,WeatherDisplay:10.37,2013-11-07 01:35:00,
2013-11-07 11:40:00,83.0,70.1,29.92,East,101,3.0,7.0,65,0.00,FEW,,0.00,WeatherDisplay:10.37,2013-11-07 01:40:00,
2013-11-07 11:45:00,83.2,70.7,29.92,East,99,5.0,7.0,66,0.00,FEW,,0.00,WeatherDisplay:10.37,2013-11-07 01:45:00,
2013-11-07 11:50:00,82.9,70.8,29.93,East,100,7.0,12.0,67,0.00,FEW,,0.00,WeatherDisplay:10.37,2013-11-07 01:50:00,
2013-11-07 11:55:00,82.7,70.6,29.93,East,100,5.0,9.0,67,0.00,FEW,,0.00,WeatherDisplay:10.37,2013-11-07 01:55:00,
2013-11-07 12:00:00,82.7,71.1,29.92,East,100,3.0,9.0,68,0.00,FEW,,0.00,WeatherDisplay:10.37,2013-11-07 02:00:00,
2013-11-07 12:10:00,83.4,71.3,29.92,East,101,6.0,10.0,67,0.00,FEW,,0.00,WeatherDisplay:10.37,2013-11-07 02:10:00,
2013-11-07 12:15:00,83.0,70.4,29.92,East,100,3.0,7.0,66,0.00,FEW,,0.00,WeatherDisplay:10.37,2013-11-07 02:15:00,
2013-11-07 12:20:00,83.1,71.0,29.92,East,101,8.0,12.0,67,0.00,FEW,,0.00,WeatherDisplay:10.37,2013-11-07 02:20:00,
2013-11-07 12:25:00,82.5,70.9,29.91,ESE,104,8.0,13.0,68,0.00,FEW,,0.00,WeatherDisplay:10.37,2013-11-07 02:25:00,
2013-11-07 12:30:00,82.3,71.1,29.91,ESE,106,5.0,14.0,69,0.00,FEW,,0.00,WeatherDisplay:10.37,2013-11-07 02:30:00,
2013-11-07 12:35:00,82.3,69.8,29.91,ESE,103,6.0,12.0,66,0.00,FEW,,0.00,WeatherDisplay:10.37,2013-11-07 02:35:00,
2013-11-07 12:40:00,82.7,71.5,29.91,East,101,5.0,12.0,69,0.00,FEW,,0.00,WeatherDisplay:10.37,2013-11-07 02:40:00,
2013-11-07 12:45:00,82.6,70.6,29.90,ESE,103,10.0,13.0,67,0.00,FEW,,0.00,WeatherDisplay:10.37,2013-11-07 02:45:00,
2013-11-07 12:50:00,82.6,69.7,29.90,ESE,105,7.0,12.0,65,0.00,FEW,,0.00,WeatherDisplay:10.37,2013-11-07 02:50:00,
2013-11-07 12:55:00,82.6,70.5,29.90,ESE,104,2.0,12.0,67,0.00,FEW,,0.00,WeatherDisplay:10.37,2013-11-07 02:55:00,
2013-11-07 13:00:00,83.0,70.9,29.89,ESE,106,8.0,13.0,67,0.00,FEW,,0.00,WeatherDisplay:10.37,2013-11-07 03:00:00,
2013-11-07 13:05:00,82.7,71.1,29.89,ESE,107,8.0,13.0,68,0.00,FEW,,0.00,WeatherDisplay:10.37,2013-11-07 03:05:00,
2013-11-07 13:10:00,82.7,71.1,29.89,ESE,110,7.0,13.0,68,0.00,FEW,,0.00,WeatherDisplay:10.37,2013-11-07 03:10:00,
2013-11-07 13:15:00,82.5,70.5,29.89,ESE,107,5.0,13.0,67,0.00,FEW,,0.00,WeatherDisplay:10.37,2013-11-07 03:15:00,
2013-11-07 13:20:00,82.3,72.0,29.89,ESE,102,6.0,14.0,71,0.00,FEW,,0.00,WeatherDisplay:10.37,2013-11-07 03:20:00,
2013-11-07 13:25:00,82.1,71.0,29.89,ESE,103,9.0,15.0,69,0.00,FEW,,0.00,WeatherDisplay:10.37,2013-11-07 03:25:00,
2013-11-07 13:30:00,82.2,71.0,29.88,ESE,106,6.0,13.0,69,0.00,FEW,,0.00,WeatherDisplay:10.37,2013-11-07 03:30:00,
2013-11-07 13:35:00,82.5,71.8,29.88,ESE,108,8.0,12.0,70,0.00,FEW,,0.00,WeatherDisplay:10.37,2013-11-07 03:35:00,
2013-11-07 13:40:00,82.4,70.8,29.88,ESE,110,5.0,12.0,68,0.00,FEW,,0.00,WeatherDisplay:10.37,2013-11-07 03:40:00,
2013-11-07 13:45:00,82.7,70.6,29.88,ESE,104,2.0,10.0,67,0.00,FEW,,0.00,WeatherDisplay:10.37,2013-11-07 03:45:00,
2013-11-07 13:50:00,82.7,72.7,29.88,East,101,7.0,13.0,72,0.00,FEW,,0.00,WeatherDisplay:10.37,2013-11-07 03:50:00,
2013-11-07 13:55:00,82.5,71.7,29.88,ESE,104,9.0,13.0,70,0.00,FEW,,0.00,WeatherDisplay:10.37,2013-11-07 03:55:00,
2013-11-07 14:00:00,82.3,71.5,29.87,ESE,105,6.0,12.0,70,0.00,FEW,,0.00,WeatherDisplay:10.37,2013-11-07 04:00:00,
2013-11-07 14:10:00,82.7,71.5,29.88,ESE,103,5.0,13.0,69,0.00,FEW,,0.00,WeatherDisplay:10.37,2013-11-07 04:10:00,
2013-11-07 14:15:00,82.7,71.9,29.88,ESE,103,5.0,12.0,70,0.00,FEW,,0.00,WeatherDisplay:10.37,2013-11-07 04:15:00,
2013-11-07 14:20:00,82.3,71.1,29.88,ESE,106,6.0,12.0,69,0.00,FEW,,0.00,WeatherDisplay:10.37,2013-11-07 04:20:00,
2013-11-07 14:25:00,82.4,71.2,29.87,ESE,107,3.0,12.0,69,0.00,FEW,,0.00,WeatherDisplay:10.37,2013-11-07 04:25:00,
2013-11-07 14:30:00,82.4,71.2,29.87,ESE,104,5.0,12.0,69,0.00,FEW,,0.00,WeatherDisplay:10.37,2013-11-07 04:30:00,
2013-11-07 14:35:00,82.5,71.7,29.87,ESE,102,3.0,12.0,70,0.00,FEW,,0.00,WeatherDisplay:10.37,2013-11-07 04:35:00,
2013-11-07 14:40:00,82.6,71.8,29.87,ESE,102,6.0,12.0,70,0.00,FEW,,0.00,WeatherDisplay:10.37,2013-11-07 04:40:00,
2013-11-07 14:45:00,82.0,71.2,29.86,ESE,102,3.0,12.0,70,0.00,FEW,,0.00,WeatherDisplay:10.37,2013-11-07 04:45:00,
2013-11-07 14:50:00,81.7,71.0,29.86,ESE,103,5.0,13.0,70,0.00,FEW,,0.00,WeatherDisplay:10.37,2013-11-07 04:50:00,
2013-11-07 15:00:00,81.9,70.7,29.86,ESE,104,2.0,9.0,69,0.00,FEW,,0.00,WeatherDisplay:10.37,2013-11-07 05:00:00,
2013-11-07 15:05:00,82.1,70.9,29.86,ESE,105,5.0,10.0,69,0.00,FEW,,0.00,WeatherDisplay:10.37,2013-11-07 05:05:00,
2013-11-07 15:10:00,82.1,70.9,29.86,ESE,103,8.0,12.0,69,0.00,FEW,,0.00,WeatherDisplay:10.37,2013-11-07 05:10:00,
2013-11-07 15:15:00,81.8,71.1,29.86,East,101,3.0,14.0,70,0.00,FEW,,0.00,WeatherDisplay:10.37,2013-11-07 05:15:00,
2013-11-07 15:20:00,82.0,70.4,29.86,ESE,102,3.0,9.0,68,0.00,FEW,,0.00,WeatherDisplay:10.37,2013-11-07 05:20:00,
2013-11-07 15:25:00,81.9,70.3,29.86,ESE,104,1.0,12.0,68,0.00,FEW,,0.00,WeatherDisplay:10.37,2013-11-07 05:25:00,
2013-11-07 15:30:00,82.3,71.1,29.86,ESE,103,1.0,6.0,69,0.00,FEW,,0.00,WeatherDisplay:10.37,2013-11-07 05:30:00,
2013-11-07 15:35:00,82.4,69.9,29.85,ESE,106,1.0,7.0,66,0.00,FEW,,0.00,WeatherDisplay:10.37,2013-11-07 05:35:00,
2013-11-07 15:40:00,82.6,71.0,29.85,ESE,106,1.0,7.0,68,0.00,FEW,,0.00,WeatherDisplay:10.37,2013-11-07 05:40:00,
2013-11-07 15:45:00,82.7,69.8,29.86,ESE,109,1.0,7.0,65,0.00,FEW,,0.00,WeatherDisplay:10.37,2013-11-07 05:45:00,
2013-11-07 15:50:00,83.0,69.5,29.86,ESE,114,2.0,7.0,64,0.00,FEW,,0.00,WeatherDisplay:10.37,2013-11-07 05:50:00,
2013-11-07 15:55:00,83.0,70.9,29.86,ESE,122,2.0,6.0,67,0.00,FEW,,0.00,WeatherDisplay:10.37,2013-11-07 05:55:00,
2013-11-07 16:00:00,83.1,70.1,29.85,ESE,104,1.0,6.0,65,0.00,FEW,,0.00,WeatherDisplay:10.37,2013-11-07 06:00:00,
2013-11-07 16:10:00,82.6,71.0,29.85,East,97,6.0,12.0,68,0.00,FEW,,0.00,WeatherDisplay:10.37,2013-11-07 06:10:00,
2013-11-07 16:15:00,82.0,69.9,29.86,East,95,9.0,13.0,67,0.00,FEW,,0.00,WeatherDisplay:10.37,2013-11-07 06:15:00,
2013-11-07 16:20:00,81.4,70.2,29.86,ESE,109,3.0,7.0,69,0.00,FEW,,0.00,WeatherDisplay:10.37,2013-11-07 06:20:00,
2013-11-07 16:25:00,81.4,70.2,29.86,ESE,108,2.0,7.0,69,0.00,FEW,,0.00,WeatherDisplay:10.37,2013-11-07 06:25:00,
2013-11-07 16:30:00,81.2,70.5,29.86,ESE,110,5.0,12.0,70,0.00,FEW,,0.00,WeatherDisplay:10.37,2013-11-07 06:30:00,
2013-11-07 16:35:00,80.9,70.6,29.86,ESE,111,1.0,12.0,71,0.00,FEW,,0.00,WeatherDisplay:10.37,2013-11-07 06:35:00,
2013-11-07 16:40:00,81.4,70.6,29.86,ESE,107,1.0,5.0,70,0.00,FEW,,0.00,WeatherDisplay:10.37,2013-11-07 06:40:00,
2013-11-07 16:45:00,81.8,69.3,29.87,SE,132,2.0,7.0,66,0.00,FEW,,0.00,WeatherDisplay:10.37,2013-11-07 06:45:00,
2013-11-07 16:50:00,82.0,70.0,29.87,SE,137,1.0,12.0,67,0.00,FEW,,0.00,WeatherDisplay:10.37,2013-11-07 06:50:00,
2013-11-07 16:55:00,82.1,70.5,29.87,ESE,110,1.0,5.0,68,0.00,FEW,,0.00,WeatherDisplay:10.37,2013-11-07 06:55:00,
2013-11-07 17:00:00,81.9,70.3,29.87,East,91,1.0,10.0,68,0.00,FEW,,0.00,WeatherDisplay:10.37,2013-11-07 07:00:00,
2013-11-07 17:10:00,81.5,69.9,29.87,East,85,2.0,6.0,68,0.00,FEW,,0.00,WeatherDisplay:10.37,2013-11-07 07:10:00,
2013-11-07 17:15:00,81.2,69.6,29.87,ENE,76,1.0,6.0,68,0.00,FEW,,0.00,WeatherDisplay:10.37,2013-11-07 07:15:00,
2013-11-07 17:20:00,80.9,69.8,29.87,ESE,107,1.0,4.0,69,0.00,FEW,,0.00,WeatherDisplay:10.37,2013-11-07 07:20:00,
2013-11-07 17:25:00,80.5,69.8,29.88,ESE,113,2.0,5.0,70,0.00,FEW,,0.00,WeatherDisplay:10.37,2013-11-07 07:25:00,
2013-11-07 17:30:00,80.0,69.7,29.87,ESE,110,1.0,6.0,71,0.00,FEW,,0.00,WeatherDisplay:10.37,2013-11-07 07:30:00,
2013-11-07 17:35:00,79.6,69.4,29.88,ESE,119,1.0,6.0,71,0.00,FEW,,0.00,WeatherDisplay:10.37,2013-11-07 07:35:00,
2013-11-07 17:40:00,79.3,69.1,29.88,SE,131,1.0,5.0,71,0.00,FEW,,0.00,WeatherDisplay:10.37,2013-11-07 07:40:00,
2013-11-07 17:45:00,79.1,69.7,29.88,SE,125,1.0,6.0,73,0.00,FEW,,0.00,WeatherDisplay:10.37,2013-11-07 07:45:00,
2013-11-07 17:50:00,79.0,69.6,29.88,ESE,110,1.0,6.0,73,0.00,FEW,,0.00,WeatherDisplay:10.37,2013-11-07 07:50:00,
2013-11-07 17:55:00,78.8,69.8,29.88,ESE,104,2.0,7.0,74,0.00,FEW,,0.00,WeatherDisplay:10.37,2013-11-07 07:55:00,
2013-11-07 18:00:00,78.7,69.3,29.88,East,100,0.0,6.0,73,0.00,FEW,,0.00,WeatherDisplay:10.37,2013-11-07 08:00:00,
2013-11-07 18:10:00,78.5,69.5,29.88,SE,142,1.0,4.0,74,0.00,FEW,,0.00,WeatherDisplay:10.37,2013-11-07 08:10:00,
2013-11-07 18:15:00,78.4,69.8,29.88,ESE,123,3.0,9.0,75,0.00,FEW,,0.00,WeatherDisplay:10.37,2013-11-07 08:15:00,
2013-11-07 18:20:00,78.2,69.2,29.89,ESE,110,3.0,9.0,74,0.00,FEW,,0.00,WeatherDisplay:10.37,2013-11-07 08:20:00,
2013-11-07 18:25:00,78.2,69.6,29.89,ESE,107,2.0,7.0,75,0.00,FEW,,0.00,WeatherDisplay:10.37,2013-11-07 08:25:00,
2013-11-07 18:30:00,78.0,69.0,29.89,ESE,105,3.0,8.0,74,0.00,FEW,,0.00,WeatherDisplay:10.37,2013-11-07 08:30:00,
2013-11-07 18:35:00,78.0,69.4,29.89,ESE,105,5.0,12.0,75,0.00,FEW,,0.00,WeatherDisplay:10.37,2013-11-07 08:35:00,
2013-11-07 18:40:00,78.0,69.4,29.89,ESE,102,2.0,9.0,75,0.00,FEW,,0.00,WeatherDisplay:10.37,2013-11-07 08:40:00,
2013-11-07 18:45:00,78.0,69.8,29.89,ESE,103,2.0,10.0,76,0.00,FEW,,0.00,WeatherDisplay:10.37,2013-11-07 08:45:00,
2013-11-07 18:50:00,77.9,69.7,29.90,ESE,103,3.0,10.0,76,0.00,FEW,,0.00,WeatherDisplay:10.37,2013-11-07 08:50:00,
2013-11-07 18:55:00,77.7,69.2,29.90,ESE,102,2.0,5.0,75,0.00,FEW,,0.00,WeatherDisplay:10.37,2013-11-07 08:55:00,
2013-11-07 19:00:00,77.6,69.4,29.90,East,100,1.0,5.0,76,0.00,FEW,,0.00,WeatherDisplay:10.37,2013-11-07 09:00:00,
2013-11-07 19:10:00,77.5,69.3,29.91,East,99,0.0,3.0,76,0.00,FEW,,0.00,WeatherDisplay:10.37,2013-11-07 09:10:00,
2013-11-07 19:20:00,77.4,69.3,29.91,East,94,0.0,3.0,76,0.00,FEW,,0.00,WeatherDisplay:10.37,2013-11-07 09:20:00,
2013-11-07 19:25:00,77.4,69.2,29.91,East,95,0.0,5.0,76,0.00,FEW,,0.00,WeatherDisplay:10.37,2013-11-07 09:25:00,
2013-11-07 19:30:00,77.4,69.2,29.91,East,97,0.0,4.0,76,0.00,FEW,,0.00,WeatherDisplay:10.37,2013-11-07 09:30:00,
2013-11-07 19:35:00,77.3,68.8,29.91,ESE,104,0.0,3.0,75,0.00,FEW,,0.00,WeatherDisplay:10.37,2013-11-07 09:35:00,
2013-11-07 19:40:00,77.3,68.8,29.91,ESE,110,0.0,0.0,75,0.00,FEW,,0.00,WeatherDisplay:10.37,2013-11-07 09:40:00,
2013-11-07 19:45:00,77.2,68.7,29.92,ESE,115,0.0,5.0,75,0.00,FEW,,0.00,WeatherDisplay:10.37,2013-11-07 09:45:00,
2013-11-07 19:50:00,77.1,68.5,29.92,ESE,120,0.0,3.0,75,0.00,FEW,,0.00,WeatherDisplay:10.37,2013-11-07 09:50:00,
2013-11-07 19:55:00,77.0,68.5,29.92,ESE,121,0.0,3.0,75,0.00,FEW,,0.00,WeatherDisplay:10.37,2013-11-07 09:55:00,
2013-11-07 20:00:00,76.9,68.4,29.92,ESE,121,0.0,3.0,75,0.00,FEW,,0.00,WeatherDisplay:10.37,2013-11-07 10:00:00,
2013-11-07 20:05:00,76.9,68.4,29.92,ESE,123,0.0,3.0,75,0.00,FEW,,0.00,WeatherDisplay:10.37,2013-11-07 10:05:00,
2013-11-07 20:15:00,76.9,68.4,29.92,SE,135,0.0,4.0,75,0.00,FEW,,0.00,WeatherDisplay:10.37,2013-11-07 10:15:00,
2013-11-07 20:20:00,76.8,68.3,29.92,SE,138,0.0,3.0,75,0.00,FEW,,0.00,WeatherDisplay:10.37,2013-11-07 10:20:00,
2013-11-07 20:30:00,76.8,68.3,29.92,SE,138,0.0,1.0,75,0.00,FEW,,0.00,WeatherDisplay:10.37,2013-11-07 10:30:00,
2013-11-07 20:35:00,76.8,68.3,29.93,SE,138,0.0,3.0,75,0.00,FEW,,0.00,WeatherDisplay:10.37,2013-11-07 10:35:00,
2013-11-07 20:40:00,76.8,68.3,29.92,SE,138,0.0,3.0,75,0.00,FEW,,0.00,WeatherDisplay:10.37,2013-11-07 10:40:00,
2013-11-07 20:45:00,76.8,68.3,29.93,SE,138,0.0,1.0,75,0.00,FEW,,0.00,WeatherDisplay:10.37,2013-11-07 10:45:00,
2013-11-07 20:50:00,76.7,68.2,29.93,SE,138,0.0,1.0,75,0.00,FEW,,0.00,WeatherDisplay:10.37,2013-11-07 10:50:00,
2013-11-07 20:55:00,76.7,68.6,29.93,SE,138,0.0,2.0,76,0.00,FEW,,0.00,WeatherDisplay:10.37,2013-11-07 10:55:00,
2013-11-07 21:00:00,76.6,68.4,29.93,SE,138,0.0,1.0,76,0.00,FEW,,0.00,WeatherDisplay:10.37,2013-11-07 11:00:00,
2013-11-07 21:05:00,76.4,68.3,29.93,SE,138,0.0,2.0,76,0.00,FEW,,0.00,WeatherDisplay:10.37,2013-11-07 11:05:00,
2013-11-07 21:10:00,76.2,68.1,29.94,SE,138,0.0,1.0,76,0.00,FEW,,0.00,WeatherDisplay:10.37,2013-11-07 11:10:00,
2013-11-07 21:15:00,76.0,67.9,29.94,SE,138,0.0,2.0,76,0.00,FEW,,0.00,WeatherDisplay:10.37,2013-11-07 11:15:00,
2013-11-07 21:20:00,75.8,68.1,29.94,SE,139,0.0,1.0,77,0.00,FEW,,0.00,WeatherDisplay:10.37,2013-11-07 11:20:00,
2013-11-07 21:25:00,75.7,68.0,29.94,SE,139,1.0,2.0,77,0.00,FEW,,0.00,WeatherDisplay:10.37,2013-11-07 11:25:00,
2013-11-07 21:30:00,75.5,67.8,29.94,SE,139,0.0,0.0,77,0.00,FEW,,0.00,WeatherDisplay:10.37,2013-11-07 11:30:00,
2013-11-07 21:40:00,75.2,67.9,29.94,SE,139,0.0,1.0,78,0.00,FEW,,0.00,WeatherDisplay:10.37,2013-11-07 11:40:00,
2013-11-07 21:45:00,75.1,67.8,29.94,SE,139,0.0,1.0,78,0.00,FEW,,0.00,WeatherDisplay:10.37,2013-11-07 11:45:00,
2013-11-07 21:50:00,75.0,67.7,29.94,SE,139,0.0,1.0,78,0.00,FEW,,0.00,WeatherDisplay:10.37,2013-11-07 11:50:00,
2013-11-07 21:55:00,74.9,67.6,29.95,SE,139,0.0,0.0,78,0.00,FEW,,0.00,WeatherDisplay:10.37,2013-11-07 11:55:00,
2013-11-07 22:00:00,74.8,67.8,29.95,SE,139,0.0,1.0,79,0.00,FEW,,0.00,WeatherDisplay:10.37,2013-11-07 12:00:00,
2013-11-07 22:05:00,74.8,67.8,29.95,SE,139,0.0,0.0,79,0.00,FEW,,0.00,WeatherDisplay:10.37,2013-11-07 12:05:00,
2013-11-07 22:10:00,74.7,67.8,29.95,SE,139,0.0,2.0,79,0.00,FEW,,0.00,WeatherDisplay:10.37,2013-11-07 12:10:00,
2013-11-07 22:15:00,74.7,67.8,29.95,SE,139,0.0,0.0,79,0.00,FEW,,0.00,WeatherDisplay:10.37,2013-11-07 12:15:00,
2013-11-07 22:20:00,74.7,67.8,29.95,SE,139,0.0,2.0,79,0.00,FEW,,0.00,WeatherDisplay:10.37,2013-11-07 12:20:00,
2013-11-07 22:25:00,74.7,67.8,29.95,SE,139,0.0,1.0,79,0.00,FEW,,0.00,WeatherDisplay:10.37,2013-11-07 12:25:00,
2013-11-07 22:30:00,74.6,67.7,29.95,SE,143,0.0,4.0,79,0.00,FEW,,0.00,WeatherDisplay:10.37,2013-11-07 12:30:00,
2013-11-07 22:35:00,74.5,67.6,29.95,SE,146,0.0,1.0,79,0.00,FEW,,0.00,WeatherDisplay:10.37,2013-11-07 12:35:00,
2013-11-07 22:45:00,74.4,67.5,29.94,SE,146,0.0,1.0,79,0.00,FEW,,0.00,WeatherDisplay:10.37,2013-11-07 12:45:00,
2013-11-07 22:50:00,74.3,67.3,29.94,SE,146,0.0,3.0,79,0.00,FEW,,0.00,WeatherDisplay:10.37,2013-11-07 12:50:00,
2013-11-07 22:55:00,74.2,67.6,29.94,SE,146,0.0,1.0,80,0.00,FEW,,0.00,WeatherDisplay:10.37,2013-11-07 12:55:00,
2013-11-07 23:00:00,74.0,67.5,29.94,SSE,147,0.0,2.0,80,0.00,FEW,,0.00,WeatherDisplay:10.37,2013-11-07 13:00:00,
2013-11-07 23:10:00,73.8,67.2,29.94,SSE,155,0.0,2.0,80,0.00,FEW,,0.00,WeatherDisplay:10.37,2013-11-07 13:10:00,
2013-11-07 23:15:00,73.7,67.1,29.94,SSE,158,0.0,1.0,80,0.00,FEW,,0.00,WeatherDisplay:10.37,2013-11-07 13:15:00,
2013-11-07 23:20:00,73.7,67.1,29.93,SSE,158,0.0,0.0,80,0.00,FEW,,0.00,WeatherDisplay:10.37,2013-11-07 13:20:00,
2013-11-07 23:25:00,73.6,67.0,29.93,SSE,158,0.0,1.0,80,0.00,FEW,,0.00,WeatherDisplay:10.37,2013-11-07 13:25:00,
2013-11-07 23:30:00,73.5,66.9,29.93,SSE,158,0.0,2.0,80,0.00,FEW,,0.00,WeatherDisplay:10.37,2013-11-07 13:30:00,
2013-11-07 23:35:00,73.5,66.9,29.93,SSE,158,0.0,3.0,80,0.00,FEW,,0.00,WeatherDisplay:10.37,2013-11-07 13:35:00,
2013-11-07 23:40:00,73.5,66.9,29.92,SSE,158,0.0,1.0,80,0.00,FEW,,0.00,WeatherDisplay:10.37,2013-11-07 13:40:00,
2013-11-07 23:45:00,73.4,66.9,29.92,SSE,159,0.0,3.0,80,0.00,FEW,,0.00,WeatherDisplay:10.37,2013-11-07 13:45:00,
2013-11-07 23:50:00,73.4,66.9,29.92,SSE,161,0.0,1.0,80,0.00,FEW,,0.00,WeatherDisplay:10.37,2013-11-07 13:50:00,
2013-11-07 23:55:00,73.3,67.1,29.92,SSE,161,0.0,1.0,81,0.00,FEW,,0.00,WeatherDisplay:10.37,2013-11-07 13:55:00,